Theta_e
322 322 321 321 321 320 322 322 323 325 325 325 326 329 329 329 330 328 320 324 326 334 332 330 328 321 321 316 317 308 298 295 297 296 298 302 300 302 307 309 310 315 316 317 327
321 321 321 321 321 321 322 323 323 324 325 326 326 327 329 328 322 317 330 335 335 335 326 324 322 319 315 315 316 304 297 299 304 301 299 302 302 303 305 306 307 311 317 323 326
320 320 321 320 321 321 321 322 322 323 324 325 326 327 327 325 313 313 333 335 336 333 326 325 323 319 312 314 313 308 298 304 304 302 302 302 300 302 304 302 307 311 316 322 322
319 319 320 319 320 321 321 322 322 322 323 325 325 325 325 318 301 317 332 333 335 327 321 320 318 312 310 308 312 302 307 308 306 301 302 301 302 301 304 305 307 313 321 322 320
318 318 319 319 320 320 321 321 321 321 323 324 322 322 319 311 309 318 331 332 329 323 318 314 314 311 306 310 311 308 308 312 308 301 299 301 299 300 303 300 311 320 321 321 321
317 317 318 318 319 319 320 320 321 321 322 323 322 321 313 303 319 321 324 326 324 321 312 317 312 312 310 308 309 312 312 310 305 302 301 298 297 298 298 312 316 319 318 320 321
317 317 317 317 318 318 319 320 320 320 321 322 321 316 307 307 316 317 324 323 324 321 314 313 316 311 310 307 312 310 307 306 302 302 299 301 296 297 299 314 315 316 316 318 319
316 316 316 317 317 318 318 319 319 319 320 321 319 307 298 312 316 316 317 318 322 319 318 317 316 312 309 311 308 306 306 300 303 300 300 300 292 299 300 310 312 314 314 316 317
316 316 316 316 316 317 318 318 318 319 319 318 309 304 297 314 308 314 315 312 318 314 314 317 314 309 308 302 298 301 296 298 301 300 300 297 294 301 300 305 307 310 313 316 317
315 315 316 316 316 316 316 316 316 315 314 312 309 298 301 299 306 311 314 312 312 314 310 309 308 304 304 300 291 292 295 297 299 300 298 295 295 301 301 297 300 304 307 312 315
315 315 315 316 315 315 313 307 300 299 304 298 299 296 299 305 310 306 313 310 310 307 301 305 300 297 300 303 300 297 298 296 299 301 295 295 297 298 302 299 299 299 299 300 309
315 315 315 315 315 315 308 298 298 298 294 301 301 301 302 304 300 304 312 303 304 298 303 298 296 302 304 303 302 298 298 297 298 298 295 293 294 299 299 300 300 302 302 303 302
314 314 314 314 314 310 303 299 304 300 289 292 298 299 299 301 297 299 307 304 301 299 299 295 298 303 302 299 299 297 297 296 296 295 295 294 292 294 299 300 301 302 302 303 303
314 314 313 313 307 305 300 303 303 298 278 283 291 295 299 299 293 304 308 304 300 297 299 298 302 301 300 298 300 295 300 299 295 295 290 295 290 291 297 299 299 304 303 303 303
314 313 313 312 303 300 302 303 301 292 271 284 290 300 299 294 294 296 306 302 294 297 299 296 297 299 298 299 302 297 302 299 295 293 290 287 287 293 291 292 299 302 304 305 304
313 312 312 306 303 303 305 303 297 275 265 276 290 291 291 292 291 296 299 302 301 295 299 299 301 301 300 302 303 299 298 296 294 292 287 291 291 287 289 292 294 300 302 304 304
312 311 308 304 296 305 304 297 279 266 277 278 284 289 287 287 289 290 290 291 287 285 289 295 297 301 303 298 301 298 294 285 285 284 287 292 287 295 293 293 296 298 298 298 298
312 310 306 302 304 305 300 286 268 272 272 284 287 287 284 286 287 287 285 286 290 288 288 288 285 297 302 300 296 297 295 287 280 280 283 286 286 293 297 300 297 296 296 295 296
310 304 299 303 305 304 290 276 273 275 279 285 287 282 283 286 285 285 285 285 290 290 286 288 289 300 301 300 300 296 292 295 283 273 277 282 286 290 292 293 294 295 294 293 294
302 296 296 304 305 298 284 277 276 283 285 285 280 284 281 284 285 285 284 288 288 294 296 293 287 297 298 299 300 297 300 289 286 280 276 280 280 290 289 291 292 295 294 294 292
296 289 298 304 302 289 279 279 282 285 287 283 280 281 282 283 285 286 287 288 290 292 295 291 291 292 296 295 295 294 294 292 292 285 282 276 283 288 292 294 295 299 299 295 293
290 282 297 302 285 285 281 281 286 283 286 285 285 284 283 285 283 285 286 289 294 293 290 292 292 288 291 294 299 299 296 295 289 283 282 282 287 291 297 296 296 299 296 294 293
285 284 296 297 280 282 280 282 283 282 283 283 283 285 285 284 277 284 287 293 296 294 291 293 288 285 286 291 293 294 296 297 296 289 285 284 287 289 290 291 292 293 292 293 293
286 280 283 287 275 282 275 280 280 284 283 285 284 285 282 280 283 281 284 293 296 296 298 298 290 287 285 289 293 291 294 295 294 288 289 288 291 288 287 289 291 292 294 292 292
285 280 282 280 278 269 277 280 280 280 283 284 282 283 281 279 280 280 283 285 289 292 297 296 286 289 291 290 293 292 293 295 293 293 290 292 291 288 289 289 292 292 290 290 290
283 281 278 272 280 275 277 275 279 281 282 280 280 282 284 281 281 279 283 284 284 290 289 297 288 290 287 291 292 290 293 294 295 295 292 288 290 294 292 288 289 289 290 291 292
287 286 283 282 274 274 275 277 280 282 283 284 284 282 281 283 287 288 288 289 289 288 291 292 290 288 285 287 289 286 291 292 293 296 294 290 293 293 291 290 290 291 291 292 293
Wind_Speed
21 19 19 18 16 15 15 15 13 11 9 8 7 9 9 8 2 5 12 8 8 2 5 8 5 3 4 4 3 3 2 4 5 6 5 5 4 3 2 7 0 1 5 4 14
23 20 20 20 17 16 16 16 13 11 10 9 8 8 8 6 5 13 4 14 9 7 4 7 6 5 2 3 5 2 3 8 6 5 6 7 6 9 5 4 1 1 1 6 14
24 23 22 22 19 18 17 16 14 13 11 9 9 8 9 7 4 8 15 13 10 7 2 2 7 5 2 4 4 3 5 5 4 4 4 8 5 5 10 4 7 10 7 12 10
26 24 23 23 20 19 18 18 15 13 12 10 8 6 10 5 9 5 27 21 13 10 5 7 7 9 4 3 2 6 7 5 3 1 3 6 7 5 7 8 5 9 14 15 12
26 24 23 23 21 20 19 17 15 14 13 12 8 1 7 8 7 4 16 19 13 8 12 8 13 5 11 5 2 6 5 5 4 4 1 5 4 5 8 1 5 11 13 17 15
26 25 24 23 21 20 19 17 15 15 15 13 9 4 3 18 1 5 4 7 8 12 8 15 8 7 8 7 11 5 9 3 3 5 1 3 2 4 4 5 7 11 14 13 15
27 27 26 25 22 21 19 16 15 15 16 15 11 4 6 8 3 6 7 8 9 12 9 7 7 7 9 6 5 6 5 0 4 1 4 4 5 6 3 7 8 8 8 10 10
29 29 27 26 24 21 19 16 14 14 15 16 11 4 7 3 3 4 4 3 7 5 6 6 2 7 4 4 5 4 2 3 4 8 4 3 9 9 6 9 10 9 7 9 11
31 30 28 27 25 22 18 15 14 13 15 14 4 3 6 2 5 7 2 1 9 4 5 4 6 4 4 5 5 8 10 7 3 8 3 5 7 9 8 9 10 9 10 10 9
32 30 30 29 26 24 19 13 12 11 9 7 4 4 6 7 6 6 4 3 5 9 5 7 7 8 9 12 21 8 16 5 9 7 5 5 11 6 4 7 13 10 9 10 11
34 33 32 31 29 26 20 11 8 4 9 10 11 2 2 5 5 7 8 3 8 8 14 10 9 22 26 22 4 9 11 13 9 7 6 10 11 11 7 5 10 8 9 12 14
34 35 34 32 30 29 15 8 14 6 11 6 3 11 5 1 4 3 10 9 11 11 17 8 19 27 18 12 12 9 14 17 4 4 8 5 14 15 5 7 9 14 13 14 12
40 37 36 33 33 22 18 8 8 6 7 5 6 4 2 3 2 9 15 13 10 17 21 23 32 20 20 16 14 10 17 8 7 5 1 2 8 7 8 8 9 11 10 9 15
40 39 38 35 25 18 14 7 7 5 6 4 8 8 6 5 5 6 13 8 4 25 26 18 20 23 17 24 17 21 7 7 6 5 7 7 10 7 10 16 9 20 14 17 13
31 40 40 37 18 21 20 9 7 8 5 6 8 3 11 12 7 4 6 9 11 10 9 25 25 27 29 33 26 12 9 7 4 4 1 3 4 8 6 11 15 23 20 17 17
40 42 43 21 14 19 16 12 6 7 8 4 7 14 13 12 7 5 5 5 0 13 21 20 2 19 16 11 18 7 9 6 3 1 8 12 12 7 9 10 8 17 17 20 16
39 45 39 16 18 23 14 12 7 7 4 7 8 16 20 14 16 8 13 15 15 5 12 23 11 8 17 22 10 11 8 4 4 6 15 7 10 20 5 8 11 16 15 12 10
42 43 29 11 22 24 11 13 5 8 10 3 10 16 19 8 14 14 8 15 22 20 5 22 18 19 19 20 15 27 25 10 17 7 7 3 13 12 10 11 10 8 9 8 9
41 16 15 21 24 20 17 15 13 10 10 10 14 12 11 13 8 14 21 19 17 27 12 12 18 16 14 9 19 19 22 11 8 4 4 6 9 8 8 9 9 10 7 9 9
16 15 12 27 25 17 18 13 6 7 14 7 11 9 16 15 12 18 16 16 18 23 24 6 13 20 12 7 18 16 15 8 2 9 7 6 7 16 11 12 10 11 13 10 7
17 10 14 23 17 15 18 10 5 4 5 8 7 6 7 10 13 11 8 8 30 20 22 6 8 9 12 20 21 9 16 6 7 6 11 5 13 9 14 16 19 23 20 12 10
6 7 12 19 15 11 13 9 5 5 3 4 6 6 8 9 10 13 15 10 19 24 21 17 7 13 31 9 11 28 22 23 14 11 6 3 14 7 21 22 20 24 16 10 9
6 6 3 17 10 14 3 4 7 6 7 7 7 4 3 6 1 7 7 8 8 18 14 15 6 9 10 8 2 15 20 26 17 3 13 15 14 1 6 7 7 9 9 10 10
6 8 3 2 3 16 7 13 9 4 6 5 4 5 4 4 7 5 8 3 5 13 18 16 7 10 17 28 27 28 27 27 27 17 24 23 29 7 7 10 9 10 11 11 9
5 4 2 11 6 6 7 11 17 9 4 8 3 11 15 11 12 15 15 9 7 8 18 21 18 12 17 9 22 17 34 36 33 37 23 26 25 9 11 13 13 11 7 9 9
6 7 4 4 13 8 9 6 16 12 10 11 15 17 15 16 18 16 19 9 13 9 21 20 14 16 17 17 20 27 23 25 29 31 18 9 18 12 8 3 4 7 12 12 12
2 3 7 8 5 7 9 13 15 9 7 12 16 8 10 27 25 19 14 11 12 12 16 17 16 16 27 8 17 27 30 29 30 29 32 27 26 9 7 10 13 14 16 17 15
Wind_Direction
221 219 215 212 212 217 220 220 220 226 219 236 241 235 234 228 193 196 215 208 210 122 148 121 85 33 8 343 294 108 65 216 225 171 230 173 138 146 69 118 109 182 168 225 136
218 218 215 213 209 216 218 220 215 216 225 222 233 236 234 208 215 230 189 217 210 126 142 161 132 103 20 359 309 148 175 220 214 200 200 180 160 156 124 139 229 256 342 115 140
213 216 211 217 207 213 216 218 213 211 218 228 226 227 218 153 248 241 192 219 201 182 178 84 107 84 59 37 292 233 214 227 249 233 209 165 160 166 125 234 203 193 165 155 159
214 210 210 212 209 212 215 213 208 208 208 207 189 218 179 159 226 222 179 202 186 170 158 122 125 133 172 181 297 278 238 255 310 346 146 169 131 174 183 209 219 176 164 157 168
211 210 204 207 207 212 212 206 205 204 203 194 194 222 144 206 224 351 193 184 171 157 203 179 159 144 189 198 258 239 274 282 321 335 323 125 199 191 214 34 112 132 159 177 178
208 206 201 202 202 203 205 205 209 205 197 193 182 159 207 221 76 29 134 159 178 169 183 198 188 174 148 178 193 303 227 309 347 293 328 156 243 166 205 125 121 154 176 187 189
203 201 200 197 196 197 198 204 208 200 192 187 158 119 233 242 63 18 145 183 200 191 179 187 217 183 147 151 199 188 249 88 248 222 251 155 275 227 169 149 157 187 187 195 209
198 196 195 194 191 190 194 196 201 192 187 182 142 85 235 295 123 40 359 111 173 193 217 188 243 241 183 167 93 233 235 178 223 157 263 181 255 255 176 158 190 197 205 211 211
195 191 189 189 183 183 182 189 195 181 176 153 99 144 234 145 194 196 143 182 176 144 222 131 125 251 185 180 147 180 226 209 283 202 138 176 250 254 172 188 206 202 205 215 229
193 188 185 184 178 173 167 154 148 142 150 106 90 105 226 209 167 164 145 110 210 169 175 192 184 203 202 198 208 164 200 205 214 200 205 204 247 271 218 197 214 211 207 215 220
189 183 183 179 173 165 152 125 125 158 193 186 184 101 31 140 102 195 154 129 234 173 201 186 195 209 203 208 249 177 192 192 206 184 149 224 244 228 232 217 236 231 222 217 224
192 180 179 175 169 158 148 179 184 156 170 216 70 209 66 55 124 202 152 192 197 197 195 191 214 217 208 202 211 190 193 207 197 148 159 221 241 243 201 231 217 225 225 227 228
191 176 174 168 163 150 175 183 145 115 116 220 169 158 197 110 226 197 182 187 229 195 186 200 218 204 201 201 205 216 204 187 202 117 326 121 269 236 243 238 243 243 244 230 215
185 170 168 160 161 159 179 178 160 134 83 223 192 231 154 129 256 146 200 169 241 207 188 215 217 193 193 209 193 216 157 169 158 147 225 172 268 234 228 232 211 245 225 232 228
188 165 164 164 149 172 159 147 130 57 168 207 163 170 150 184 137 251 143 162 230 243 191 193 189 187 201 196 189 225 137 159 140 187 100 212 259 255 154 230 229 235 234 235 226
185 169 163 157 146 152 144 132 73 68 225 166 139 167 153 199 192 103 160 163 153 271 217 208 248 187 196 193 192 112 118 62 63 148 242 201 214 225 196 198 228 238 238 237 235
186 168 160 157 156 147 147 135 129 149 259 179 177 179 187 184 199 176 181 190 198 200 210 202 199 171 169 184 164 154 185 126 208 215 240 213 195 239 228 229 213 223 230 232 223
174 165 153 147 141 145 148 152 134 194 199 167 146 173 194 157 207 212 205 205 206 227 288 192 211 181 183 192 175 190 191 177 199 188 207 125 226 241 220 216 237 250 258 258 239
155 153 144 148 145 149 146 175 195 183 153 139 143 167 191 196 166 183 222 218 204 195 225 208 215 180 184 180 165 185 208 201 94 28 64 204 277 294 236 247 252 246 240 255 237
151 135 148 148 147 150 163 180 140 191 147 141 164 172 189 189 196 181 184 221 219 204 204 280 205 188 198 195 206 186 177 173 54 167 228 259 277 229 190 217 235 233 233 231 223
130 113 151 140 143 159 187 179 137 203 142 143 152 137 171 170 188 189 214 237 199 191 188 210 255 184 160 208 181 168 188 186 154 168 203 212 245 205 206 207 207 213 212 202 198
84 110 153 147 150 176 185 157 139 161 101 103 127 154 158 177 177 204 215 220 191 199 192 187 275 203 197 163 217 202 196 195 199 182 217 162 254 202 196 198 203 212 201 186 189
88 93 164 158 161 170 72 158 163 138 174 158 177 166 145 149 104 203 240 211 222 191 194 179 251 182 174 210 193 217 203 201 224 238 217 222 253 328 217 229 200 185 192 190 188
114 123 80 106 72 159 128 185 167 163 164 157 151 102 116 192 230 246 216 254 246 222 207 170 222 235 213 197 192 205 211 192 196 211 214 216 241 247 246 232 217 213 195 179 179
55 86 116 167 167 124 148 164 183 171 188 168 156 193 195 214 215 226 244 256 260 273 241 211 230 243 238 252 202 215 211 204 200 215 215 225 232 231 221 217 216 208 171 165 178
108 128 61 104 126 88 173 205 185 196 161 202 218 204 200 215 215 228 235 214 231 215 241 214 224 210 234 236 207 215 206 209 212 214 223 243 233 198 219 164 174 184 167 184 191
110 68 107 147 104 127 205 196 195 138 254 225 210 221 215 226 236 248 264 267 247 221 225 236 203 198 225 187 219 212 197 198 208 215 210 216 221 161 194 196 199 195 193 184 193